Location: Cahas Mountain Overlook
(37.0833°N, 80.1000°W)
Time: 22:51:38
(UTC-04:00)

RS-44 - Visible Passes

Search period start: 16 March 2026 00:00
Search period end: 26 March 2026 00:00
Orbit: 1174 x 1511 km, 82.5° (Epoch: 16 March)

Date Brightness Start Highest point End Pass type
(mag) Time Alt. Az. Time Alt. Az. Time Alt. Az.
16 Mar ? 03:23:25 10° N 03:29:25 45° NNE 03:29:25 45° NNE visible
16 Mar ? 05:17:40 10° NNW 05:21:58 25° NW 05:21:58 25° NW visible
17 Mar ? 01:56:11 10° NNE 02:00:08 16° ENE 02:00:08 16° ENE visible
17 Mar ? 03:47:00 10° N 03:52:41 49° N 03:52:41 49° N visible
17 Mar ? 05:42:43 10° NW 05:45:16 16° WNW 05:45:16 16° WNW visible
18 Mar ? 02:18:29 10° NNE 02:23:27 24° NE 02:23:27 24° NE visible
18 Mar ? 04:10:51 10° NNW 04:16:01 41° NNW 04:16:01 41° NNW visible
19 Mar ? 02:41:31 10° N 02:46:49 33° NE 02:46:49 33° NE visible
19 Mar ? 04:34:58 10° NNW 04:39:23 30° NW 04:39:23 30° NW visible
20 Mar ? 01:16:59 10° NE 01:17:39 10° NE 01:17:39 10° NE visible
20 Mar ? 03:04:55 10° N 03:10:13 41° NNE 03:10:13 41° NNE visible
20 Mar ? 04:59:30 10° NNW 05:02:47 21° NW 05:02:47 21° NW visible
21 Mar ? 01:37:14 10° NNE 01:41:05 17° NE 01:41:05 17° NE visible
21 Mar ? 03:28:36 10° N 03:33:39 41° N 03:33:39 41° N visible
21 Mar ? 05:24:50 10° NW 05:26:13 13° NW 05:26:13 13° NW visible
22 Mar ? 01:59:51 10° NNE 02:04:32 25° NE 02:04:32 25° NE visible
22 Mar ? 03:52:31 10° NNW 03:57:06 35° NNW 03:57:06 35° NNW visible
23 Mar ? 02:23:00 10° N 02:28:00 34° NNE 02:28:00 34° NNE visible
23 Mar ? 04:16:45 10° NNW 04:20:35 26° NW 04:20:35 26° NW visible
24 Mar ? 00:56:51 10° NE 00:58:56 12° NE 00:58:56 12° NE visible
24 Mar ? 02:46:29 10° N 02:51:30 39° N 02:51:30 39° N visible
24 Mar ? 04:41:25 10° NW 04:44:05 18° NW 04:44:05 18° NW visible
25 Mar ? 01:18:27 10° NNE 01:22:26 19° NE 01:22:26 19° NE visible
25 Mar ? 03:10:14 10° N 03:15:01 38° NNW 03:15:01 38° NNW visible
25 Mar ? 05:07:10 10° NW 05:07:36 11° NW 05:07:36 11° NW visible
